Accueil
METAR-TAF:

METAR-TAF

Aéroports :

Wittering, Angleterre

latitude: 52-37N, longitude: 000-28W, altitude: 84 m

Observation

Le bulletin a été fait il y a 39 minutes, à 16:50 UTC
Vent 16 kt de ouest/nord-ouest
Température 19°C
Humidité 64%
Pression 1010 hPa
Visibilité 10 km ou plus

METAR: EGXT 251650Z AUTO 29016KT 9999 FEW026/// BKN038/// 19/12 Q1010

Heure: 18:29 (17:29 UTC)


TAF: absent

Observations et prévisions météorologiques de plus de 4000 aéroports (messages METAR et TAF).

Les stations disponibles sont représentées par des disques jaunes et rouges sur la carte.

Passer la souris dessus pour voir le nom de la station.

Cliquer dessus pour voir les observations et prévisions météorologiques.

Pour changer de carte: cliquez sur les boutons verts avec une croix noire pour zoomer, sur le bouton vert avec un tiret pour effectuer un zoom arrière, ou sur les flèches vertes pour les cartes adjacentes.


METAR-TAF: